state,date,count,respondents,proportion,percentage,type,lower,upper
NSW,2020-03-27,165,316,0.5221518987341772,52.19328638683102,Nowcast,46.67499286408995,57.62767968948618
NSW,2020-04-03,216,326,0.6625766871165644,66.25069753060971,Nowcast,60.94708676545852,71.29972563398944
NSW,2020-04-10,211,321,0.6573208722741433,65.65969671134344,Nowcast,60.28556299482045,70.66013478386452
NSW,2020-04-17,193,291,0.6632302405498282,66.2610054485954,Nowcast,60.75768511699285,71.50881138624062
NSW,2020-04-22,140,225,0.6222222222222222,62.17287835756578,Nowcast,55.804954149226724,68.36444106941656
NSW,2020-05-01,119,196,0.6071428571428571,60.67782886566929,Nowcast,53.68377212128904,67.31714843003206
NSW,2020-05-07,112,194,0.5773195876288659,57.78808695879436,Nowcast,50.697917056044794,64.68333190940871
NSW,2020-05-14,211,408,0.5171568627450981,51.71844563054642,Nowcast,46.91167449891085,56.519259457475535
NSW,2020-05-22,202,413,0.4891041162227603,48.91321594634351,Nowcast,44.21174249216933,53.672222153252626
NSW,2020-05-29,173,397,0.4357682619647355,43.62235411033626,Nowcast,38.85482981970961,48.451944028842355
NSW,2020-06-06,182,398,0.457286432160804,45.72760904393873,Nowcast,40.85397694491795,50.62082171488866
NSW,2020-06-12,166,403,0.4119106699751861,41.23543248519837,Nowcast,36.4918778291108,46.144181116710385
NSW,2020-06-19,165,413,0.39951573849878935,40.00656194383982,Nowcast,35.40273652053733,44.76048510452193
NSW,2020-06-26,170,402,0.4228855721393035,42.31766466968286,Nowcast,37.530661923518984,47.083909419769846
NSW,2020-07-09,151,388,0.38917525773195877,38.93507207935159,Nowcast,34.087724009392964,43.78411264781536
NSW,2020-07-16,168,400,0.42,42.0388915130377,Nowcast,37.28234578410658,47.08193560323722
NSW,2020-07-23,152,402,0.3781094527363184,37.878889244246295,Nowcast,33.264085201596174,42.73460002770045
NSW,2020-07-30,188,407,0.4619164619164619,46.16303300516414,Nowcast,41.282594381376875,51.09840397876015
NSW,2020-08-07,204,445,0.4584269662921348,45.821207458901405,Nowcast,41.24708664994434,50.47698068207328
NSW,2020-08-12,190,408,0.46568627450980393,46.59374180420325,Nowcast,41.909135281358786,51.495238424069136
NSW,2020-08-19,171,395,0.43291139240506327,43.305865079935565,Nowcast,38.614213127849986,48.09165657946245
NSW,2020-08-26,174,411,0.4233576642335766,42.37576801719594,Nowcast,37.69175758382365,47.102605584977326
NSW,2020-09-02,162,398,0.40703517587939697,40.76235338164662,Nowcast,35.96939080388378,45.59354244042002
NSW,2020-09-11,176,405,0.4345679012345679,43.516506180037,Nowcast,38.71728630788468,48.401489404167435
NSW,2020-09-16,179,402,0.44527363184079605,44.55961538251205,Nowcast,39.862834849883065,49.51694932956215
NSW,2020-09-21,156,387,0.40310077519379844,40.34650480780023,Nowcast,35.47946544299679,45.36453860231647
NSW,2020-09-30,159,390,0.4076923076923077,40.763566824676936,Nowcast,35.976726234294965,45.71241009347432
NSW,2020-10-07,156,398,0.39195979899497485,39.228244849541234,Nowcast,34.57009830362404,44.09546743967457
NSW,2020-10-15,128,367,0.34877384196185285,34.930378159588756,Nowcast,30.22657524880472,39.88806760620702
NSW,2020-10-21,132,380,0.3473684210526316,34.73672927338402,Nowcast,30.041708416388087,39.59915164828473
NSW,2020-10-28,146,393,0.37150127226463103,37.14392003816733,Nowcast,32.44756767976699,42.00549193947683
NSW,2020-11-05,134,391,0.34271099744245526,34.3239428688132,Nowcast,29.708314979220003,39.13199707838657
NSW,2020-11-12,160,397,0.40302267002518893,40.29374939771495,Nowcast,35.59124569111277,45.17445370330181
NSW,2020-11-19,157,379,0.41424802110817943,41.44726129492878,Nowcast,36.60834256071103,46.29005779140504
NSW,2020-11-25,145,399,0.3634085213032581,36.38570359348953,Nowcast,31.766927535283923,41.18950625991457
NSW,2020-12-03,130,410,0.3170731707317073,31.7040910034977,Nowcast,27.306061012785793,36.33674491862912
NSW,2020-12-10,121,387,0.31266149870801035,31.3234731921885,Nowcast,26.866779439367157,36.04501501761088
NSW,2020-12-17,142,414,0.34299516908212563,34.33211698240075,Nowcast,29.937122538964655,38.99413796126537
NSW,2021-01-05,157,390,0.4025641025641026,40.24540369687179,Nowcast,35.52257507578405,45.07368613583843
NSW,2021-01-13,165,386,0.4274611398963731,42.75483300097103,Nowcast,37.854435970818514,47.657730884349334
NSW,2021-01-21,168,405,0.4148148148148148,41.51273686776817,Nowcast,36.82558322266181,46.42607856088493
NSW,2021-01-26,136,395,0.34430379746835443,34.42173326711497,Nowcast,29.937553755252495,39.18964206454926
NSW,2021-02-03,129,395,0.3265822784810127,32.71352071489198,Nowcast,28.24635494062201,37.55194358071575
NSW,2021-02-10,136,409,0.33251833740831294,33.29001865580571,Nowcast,28.87536304706211,37.93783252398547
NSW,2021-02-17,115,401,0.286783042394015,28.739161452016067,Nowcast,24.46991179871313,33.316984320227846
NSW,2021-02-25,138,407,0.33906633906633904,33.9310228248783,Nowcast,29.470742130524947,38.63965102086218
NSW,2021-03-03,133,419,0.31742243436754175,31.801804890143455,Nowcast,27.448889584447635,36.353626631355986
NSW,2021-03-10,123,412,0.29854368932038833,29.8917805821381,Nowcast,25.632558748396594,34.45277331070397
NSW,2021-03-17,122,423,0.28841607565011823,28.890473656803188,Nowcast,24.69937727395432,33.38891315044318
NSW,2021-03-25,108,409,0.26405867970660146,26.456524920580932,Nowcast,22.313848807961016,30.95804483516918
NSW,2021-04-01,121,392,0.3086734693877551,30.915342539648982,Nowcast,26.525408419064544,35.59640178418286
NSW,2021-04-09,115,400,0.2875,28.77150215169495,Nowcast,24.569078941106167,33.369998330280495
NSW,2021-04-15,104,405,0.25679012345679014,25.747521471074812,Nowcast,21.649122723584092,30.13703221059498
NSW,2021-04-21,99,429,0.23076923076923078,23.165507702533432,Nowcast,19.375050936253118,27.210360857880843
NSW,2021-04-29,97,423,0.2293144208037825,23.00739098504436,Nowcast,19.148130741941344,27.17436988982167
NSW,2021-05-05,121,432,0.2800925925925926,28.06677872014826,Nowcast,23.922322954462548,32.37403879592056
NSW,2021-05-12,104,413,0.25181598062953997,25.199377893488474,Nowcast,21.129497574561967,29.603323024446937
NSW,2021-05-20,105,418,0.2511961722488038,25.1599037757964,Nowcast,21.189397355404342,29.426994345708767
NSW,2021-05-26,107,419,0.2553699284009546,25.599509428090556,Nowcast,21.661696377669013,30.035761718081783
NSW,2021-06-02,123,421,0.2921615201900237,29.27450973525698,Nowcast,25.156609988080792,33.73862356541211
NSW,2021-06-09,95,414,0.22946859903381642,23.029496806433134,Nowcast,19.15791287212934,27.301950603246134
NSW,2021-06-16,93,423,0.2198581560283688,22.08177517746129,Nowcast,18.309045979538073,26.168191849888416
NSW,2021-06-23,125,420,0.2976190476190476,29.8096926845206,Nowcast,25.60564429753568,34.34491246269822
NSW,2021-06-30,185,412,0.44902912621359226,44.917098600006746,Nowcast,40.161689266398625,49.64691895475017
NSW,2021-07-06,192,423,0.45390070921985815,45.36843110481277,Nowcast,40.75646925973649,50.12200889138364
NSW,2021-07-13,201,419,0.4797136038186158,47.9732402405087,Nowcast,43.27646400029098,52.74010316723794
NSW,2021-07-21,220,410,0.5365853658536586,53.61346477481956,Nowcast,48.877940132445666,58.30718984146147
NSW,2021-07-28,205,408,0.5024509803921569,50.280650396645534,Nowcast,45.37145169577959,55.09985106706515
NSW,2021-08-04,191,409,0.4669926650366748,46.720494614921634,Nowcast,41.937782661125475,51.56541519656709
NSW,2021-08-11,238,418,0.569377990430622,56.89861656797513,Nowcast,52.112399043346926,61.6444840691317
NSW,2021-08-18,259,420,0.6166666666666667,61.63669567621252,Nowcast,56.908984253286455,66.23176297719912
NSW,2021-08-25,239,417,0.5731414868105515,57.285235432721436,Nowcast,52.42495026779267,62.08518524165664
NSW,2021-09-01,252,421,0.5985748218527316,59.814843871197645,Nowcast,54.985255579498606,64.44504476672263
